This demonstration page uses our WeatherBlox Daily Observations layout. Learn more.

Left ArrowRight Arrow

38.88101, -77.10428

Hourly Observations for July 20, 2021

Temp ( °F °C ) Dew Point ( °F °C ) Humidity (%) Winds ( mph kmh ) Pressure ( in mb ) Visibility ( mi km ) Precip ( " mm )
12:52 am 00:52 Clear 76 24.4 67 19.4 74 74 SW 3 6 30.00 1016 9 14 N/A
1:52 am 01:52 Clear 76 24.4 64 17.8 67 67 S 3 6 29.98 1015 10 16 N/A
2:52 am 02:52 Clear 75 23.9 64 17.8 69 69 SSW 5 7 29.97 1015 10 16 N/A
3:52 am 03:52 Clear 74 23.3 65 18.3 74 74 W 5 7 29.95 1014 10 16 N/A
4:52 am 04:52 Clear 74 23.3 66 18.9 76 76 N 5 7 29.95 1014 10 16 N/A
5:52 am 05:52 Clear 73 22.8 65 18.3 76 76 N 9 15 29.96 1015 10 16 N/A
6:52 am 06:52 Sunny 74 23.3 64 17.8 71 71 N 7 11 29.97 1015 9 14 N/A
7:52 am 07:52 Sunny 77 25 64 17.8 64 64 NNW 9 15 29.98 1015 10 16 N/A
8:52 am 08:52 Sunny 80 26.7 65 18.3 60 60 NNW 9 15 29.98 1015 9 14 N/A
9:52 am 09:52 Sunny 82 27.8 65 18.3 56 56 NNW 7 11 29.98 1015 10 16 N/A
10:52 am 10:52 Sunny 86 30 67 19.4 53 53 VRB 5 7 29.98 1015 10 16 N/A
11:52 am 11:52 Mostly Sunny 87 30.6 66 18.9 50 50 N N/A 29.98 1015 9 14 N/A
12:52 pm 12:52 Mostly Sunny 89 31.7 64 17.8 43 43 NNW 7 11 29.96 1015 10 16 N/A
1:52 pm 13:52 Mostly Sunny 91 32.8 61 16.1 37 37 N 8 13 29.95 1014 9 14 N/A
2:52 pm 14:52 Mostly Sunny 93 33.9 63 17.2 37 37 N N/A 29.93 1014 9 14 N/A
3:52 pm 15:52 Partly Cloudy 93 33.9 63 17.2 37 37 VRB 3 6 29.91 1013 9 14 N/A
4:52 pm 16:52 Mostly Sunny 91 32.8 65 18.3 42 42 S 7 11 29.90 1012 8 13 N/A
5:52 pm 17:52 Mostly Sunny 88 31.1 66 18.9 48 48 SSE 6 9 29.88 1012 8 13 N/A
6:52 pm 18:52 Partly Cloudy 90 32.2 64 17.8 42 42 NNW 5 7 29.89 1012 9 14 N/A
7:52 pm 19:52 Partly Cloudy 89 31.7 63 17.2 42 42 W 10 17 29.89 1012 10 16 N/A
8:52 pm 20:52 Mostly Clear 85 29.4 67 19.4 55 55 SSW 12 19 29.89 1012 10 16 N/A
9:52 pm 21:52 Clear 83 28.3 67 19.4 59 59 SW 6 9 29.91 1013 10 16 N/A
10:52 pm 22:52 Clear 82 27.8 68 20 63 63 SW 5 7 29.91 1013 10 16 N/A
11:52 pm 23:52 Clear 80 26.7 66 18.9 62 62 SW 6 9 29.91 1013 10 16 N/A

Powered by AerisWeather